This is the latest recevied weather packets stored in our database for station/object N9GKE-1. If no packets are shown the sender has not sent any weather packets the latest 10 day(s).
| Time | Temp. | Humidity | Pressure | Rain* | Wind** | Luminosity | Snow |
|---|---|---|---|---|---|---|---|
| 1778016094 | 8.89° C | 89% | 1009 hPa | 1.27 mm | - | - | - |
| 1778015494 | 9.44° C | 88% | 1009.1 hPa | 1.02 mm | - | - | - |
| 1778014895 | 9.44° C | 87% | 1009 hPa | 0.76 mm | - | - | - |
| 1778014298 | 9.44° C | 87% | 1009 hPa | 0.51 mm | - | - | - |
| 1778013695 | 9.44° C | 87% | 1009.1 hPa | 0.25 mm | - | - | - |
| 1778013095 | 9.44° C | 85% | 1009.1 hPa | 0.25 mm | - | - | - |
| 1778012494 | 9.44° C | 85% | 1009.2 hPa | 0 mm | - | - | - |
| 1778011895 | 9.44° C | 85% | 1009.3 hPa | 0 mm | - | - | - |
| 1778011295 | 10° C | 82% | 1009.3 hPa | 0 mm | - | - | - |
| 1778010696 | 10° C | 81% | 1009.4 hPa | 0 mm | - | - | - |
| 1778010096 | 10.56° C | 79% | 1009.4 hPa | 0 mm | - | - | - |
| 1778009494 | 10.56° C | 77% | 1009.2 hPa | 0 mm | - | - | - |
| 1778008895 | 10.56° C | 78% | 1009 hPa | 0 mm | - | - | - |
| 1778008296 | 10.56° C | 77% | 1008.9 hPa | 0 mm | - | - | - |
| 1778007694 | 10.56° C | 76% | 1008.8 hPa | 0 mm | - | - | - |
| 1778007095 | 10.56° C | 77% | 1008.7 hPa | 0 mm | - | - | - |
| 1778006495 | 11.11° C | 78% | 1008.7 hPa | 0 mm | - | - | - |
| 1778005896 | 10.56° C | 78% | 1008.6 hPa | 0 mm | - | - | - |
| 1778005295 | 10.56° C | 78% | 1008.5 hPa | 0 mm | - | - | - |
| 1778004694 | 10.56° C | 81% | 1008.5 hPa | 0 mm | - | - | - |
| 1778004094 | 10.56° C | 81% | 1008.5 hPa | 0 mm | - | - | - |
| 1778003495 | 10.56° C | 81% | 1008.7 hPa | 0.25 mm | - | - | - |
| 1778002896 | 10.56° C | 82% | 1008.7 hPa | 0.25 mm | - | - | - |
| 1778002294 | 10° C | 83% | 1008.7 hPa | 0.51 mm | - | - | - |
| 1778001696 | 10° C | 82% | 1008.5 hPa | 0.76 mm | - | - | - |
* Rain latest hour (hover to see other rain measurements)
** Current wind speed in m/s (hover to see current wind gust speed)